Weather History for Glasgow, MT

Change the Weather History Date:

Thursday, November 29, 2012

  Actual Average Record
Temperature  
Mean Temperature 23 °F 22 °F  
Max Temperature 27 °F 32 °F 57 °F (1951)
Min Temperature 19 °F 12 °F -37 °F (1896)
Degree Days  
Heating Degree Days 42 43  
Month to date heating degree days 1093 1026  
Since 1 July heating degree days 1971 1950  
Cooling Degree Days 0 0  
Month to date cooling degree days 0 0  
Year to date cooling degree days 681 533  
Moisture  
Dew Point 19 °F    
Average Humidity 91    
Maximum Humidity 100    
Minimum Humidity 81    
Precipitation  
Precipitation T in 0.01 in 0.41 in (1901)
Month to date precipitation 0.69 0.39  
Year to date precipitation 12.52 11.25  
Snow  
Snow T in 0.20 in 2.50 in (1898)
Month to date snowfall 12.3 4.9  
Since 1 July snowfall 13.3 6.4  
Since 1 September snowfall 13.3 6.4  
Snow Depth T in    
Sea Level Pressure  
Sea Level Pressure 29.94 in    
Wind  
Wind Speed 13 mph (East)    
Max Wind Speed 21 mph    
Max Gust Speed 26 mph    
Visibility 5 miles    
Events      
T = Trace of Precipitation, MM = Missing Value Source: NWS Daily Summary

Daily Weather History Graph

Daily Weather History Graph

Search for Another Location

Airport:

Trip Planner

Search our weather history database for the weather conditions in past years. The results will help you decide how hot, cold, wet, or windy it might be!

Date:

Astronomy

Nov. 29, 2012 Rise Set
Actual Time 7:34 AM MST 4:15 PM MST
Civil Twilight 6:58 AM MST 4:51 PM MST
Nautical Twilight 6:19 AM MST 5:30 PM MST
Astronomical Twilight 5:42 AM MST 6:07 PM MST
Moon 5:20 PM MST (11/29) 8:23 AM MST (11/29)
Length of Visible Light 9h 52m
Length of Day
8h 41m
Full, 99% of the Moon is Illuminated
Nov 29
Full
Dec 6
Last Quarter
Dec 13
New
Dec 19
First Quarter
Dec 28
Full

Hourly Weather History & Observations

Time (MST) Temp. Windchill Dew Point Humidity Pressure Visibility Wind Dir Wind Speed Gust Speed Precip Events Conditions
12:28 AM 21.2 °F 7.8 °F 17.6 °F 86% 29.90 in 8.0 mi East 15.0 mph - N/A   Scattered Clouds
12:53 AM 21.0 °F 7.1 °F 18.0 °F 88% 29.99 in 9.0 mi East 16.1 mph - N/A   Clear
1:05 AM 21.2 °F 7.8 °F 17.6 °F 86% 29.89 in 10.0 mi East 15.0 mph - N/A   Partly Cloudy
1:53 AM 19.9 °F 7.3 °F 18.0 °F 92% 29.97 in 10.0 mi East 12.7 mph - N/A   Clear
2:14 AM 19.4 °F 6.0 °F 17.6 °F 93% 29.89 in 10.0 mi East 13.8 mph - N/A   Scattered Clouds
2:25 AM 19.4 °F 6.0 °F 17.6 °F 93% 29.89 in 10.0 mi East 13.8 mph - N/A   Mostly Cloudy
2:44 AM 19.4 °F 5.5 °F 17.6 °F 93% 29.87 in 10.0 mi East 15.0 mph - N/A   Scattered Clouds
2:53 AM 19.9 °F 6.2 °F 17.1 °F 89% 29.96 in 10.0 mi East 15.0 mph - N/A   Partly Cloudy
3:53 AM 19.9 °F 6.2 °F 17.1 °F 89% 29.97 in 10.0 mi East 15.0 mph - N/A   Clear
4:03 AM 19.4 °F 6.0 °F 17.6 °F 93% 29.87 in 10.0 mi East 13.8 mph - N/A   Partly Cloudy
4:27 AM 19.4 °F 6.6 °F 17.6 °F 93% 29.88 in 10.0 mi ESE 12.7 mph - N/A   Mostly Cloudy
4:53 AM 19.9 °F 7.3 °F 17.1 °F 89% 29.99 in 10.0 mi East 12.7 mph - N/A   Overcast
5:53 AM 19.9 °F 7.3 °F 17.1 °F 89% 29.99 in 8.0 mi East 12.7 mph - N/A   Overcast
6:53 AM 19.9 °F 7.9 °F 18.0 °F 92% 29.99 in 7.0 mi East 11.5 mph - N/A   Overcast
7:53 AM 21.0 °F 8.6 °F 19.0 °F 92% 29.99 in 3.0 mi East 12.7 mph - N/A   Overcast
8:21 AM 21.2 °F 8.3 °F 19.4 °F 93% 29.88 in 2.5 mi East 13.8 mph - N/A   Overcast
8:53 AM 21.2 °F 8.9 °F 19.4 °F 93% 29.90 in 2.0 mi East 12.7 mph - N/A   Overcast
9:05 AM 21.2 °F 9.5 °F 19.4 °F 93% 29.90 in 1.8 mi East 11.5 mph - N/A   Overcast
9:53 AM 21.9 °F 9.8 °F 21.0 °F 96% 30.02 in 1.8 mi East 12.7 mph - N/A   Overcast
10:05 AM 23.0 °F 10.6 °F 21.2 °F 93% 29.90 in 2.0 mi East 13.8 mph - N/A   Overcast
10:53 AM 24.1 °F 11.0 °F 21.9 °F 91% 30.00 in 2.5 mi ESE 16.1 mph - N/A   Overcast
11:08 AM 24.8 °F 12.4 °F 21.2 °F 86% 29.89 in 3.0 mi East 15.0 mph - N/A   Overcast
11:27 AM 24.8 °F 11.9 °F 21.2 °F 86% 29.89 in 3.0 mi ESE 16.1 mph - N/A   Overcast
11:53 AM 25.0 °F 13.1 °F 21.9 °F 88% 29.99 in 4.0 mi ESE 13.8 mph - N/A   Overcast
12:53 PM 26.1 °F 16.2 °F 23.0 °F 88% 30.00 in 5.0 mi ESE 10.4 mph - N/A   Overcast
1:53 PM 26.1 °F 15.6 °F 21.9 °F 84% 30.00 in 5.0 mi ESE 11.5 mph - N/A   Mostly Cloudy
2:53 PM 25.0 °F 14.2 °F 21.9 °F 88% 30.01 in 4.0 mi ESE 11.5 mph - N/A   Overcast
3:53 PM 24.1 °F 13.1 °F 21.0 °F 88% 30.01 in 4.0 mi ESE 11.5 mph - N/A   Overcast
4:53 PM 23.0 °F 11.1 °F 21.0 °F 92% 30.00 in 5.0 mi ESE 12.7 mph - N/A   Overcast
5:25 PM 21.2 °F 9.5 °F 21.2 °F 100% 29.89 in 3.0 mi ESE 11.5 mph - N/A   Overcast
5:39 PM 21.2 °F 10.1 °F 21.2 °F 100% 29.89 in 2.0 mi East 10.4 mph - N/A   Overcast
5:51 PM 21.2 °F 9.5 °F 19.4 °F 93% 29.89 in 1.5 mi East 11.5 mph - N/A   Overcast
5:53 PM 21.9 °F 11.0 °F 19.9 °F 92% 30.01 in 1.5 mi East 10.4 mph - N/A   Overcast
6:08 PM 21.2 °F 9.5 °F 19.4 °F 93% 29.89 in 1.0 mi East 11.5 mph - N/A   Overcast
6:53 PM 21.0 °F 9.3 °F 19.9 °F 96% 30.01 in 0.8 mi East 11.5 mph - N/A   Mist
7:30 PM 21.2 °F 10.1 °F 19.4 °F 93% 29.89 in 1.2 mi East 10.4 mph - N/A   Overcast
7:50 PM 21.2 °F 9.5 °F 19.4 °F 93% 29.88 in 1.5 mi East 11.5 mph - N/A   Overcast
7:53 PM 21.0 °F 8.6 °F 19.9 °F 96% 29.99 in 1.2 mi East 12.7 mph - N/A   Overcast
8:09 PM 21.2 °F 9.5 °F 19.4 °F 93% 29.87 in 2.0 mi East 11.5 mph - N/A   Overcast
8:20 PM 21.2 °F 8.9 °F 19.4 °F 93% 29.86 in 3.0 mi East 12.7 mph - N/A   Mostly Cloudy
8:30 PM 21.2 °F 9.5 °F 19.4 °F 93% 29.87 in 4.0 mi East 11.5 mph - N/A   Scattered Clouds
8:53 PM 21.0 °F 9.3 °F 19.0 °F 92% 29.98 in 5.0 mi East 11.5 mph - N/A   Clear
9:53 PM 21.0 °F 9.3 °F 19.0 °F 92% 29.96 in 5.0 mi East 11.5 mph - N/A   Clear
10:53 PM 19.9 °F 6.2 °F 18.0 °F 92% 29.96 in 6.0 mi ESE 15.0 mph - N/A   Clear
11:53 PM 19.9 °F 4.3 °F 18.0 °F 92% 29.93 in 7.0 mi ESE 19.6 mph - N/A   Clear